HUN6MJ LHBP-LEAL

Flight info

Callsign HUN6MJ
Flight time 2h 53m
Altitude 36000
Route DUZLA KOPRY ZAG BAXON/N0445F370 GAVRA GOVGO DOBIM SORAS N850 ADX Z237 OKITI M603 GERVU
Aircraft B738/M-SDE2E3FGHIJ2J5RWXY/L

Departure

Time 2026-05-06 07:48
Airport Budapest Liszt Ferenc International Airport (LHBP)

Arrival

Time 2026-05-06 10:42
Airport Alicante-Elche Miguel Hernández Airport (LEAL)
Time Latitude Longitude Altitude Speed Heading
2026-05-06 07:30 47.43422 19.26300 475 ft 0 kts 222°
2026-05-06 07:41 47.43421 19.26299 475 ft 0 kts 222°
2026-05-06 07:42 47.43428 19.26308 475 ft 2 kts 219°
2026-05-06 07:42 47.43439 19.26323 475 ft 2 kts 223°
2026-05-06 07:42 47.43451 19.26338 475 ft 2 kts 222°
2026-05-06 07:42 47.43460 19.26355 475 ft 2 kts 260°
2026-05-06 07:43 47.43458 19.26376 475 ft 1 kts 303°
2026-05-06 07:43 47.43452 19.26386 475 ft 1 kts 313°
2026-05-06 07:43 47.43451 19.26387 475 ft 0 kts 312°
2026-05-06 07:45 47.43485 19.26332 475 ft 17 kts 311°
2026-05-06 07:45 47.43591 19.26184 476 ft 21 kts 324°
2026-05-06 07:46 47.43693 19.26033 477 ft 20 kts 311°
2026-05-06 07:46 47.43796 19.26001 478 ft 16 kts 40°
2026-05-06 07:46 47.43877 19.26105 480 ft 14 kts 42°
2026-05-06 07:46 47.43951 19.26205 480 ft 14 kts 42°
2026-05-06 07:47 47.44021 19.26300 480 ft 13 kts 43°
2026-05-06 07:47 47.44060 19.26453 479 ft 25 kts 92°
2026-05-06 07:47 47.43869 19.26843 473 ft 83 kts 131°
2026-05-06 07:47 47.43311 19.27747 446 ft 154 kts 132°
2026-05-06 07:48 47.42489 19.29097 687 ft 190 kts 134°
2026-05-06 07:48 47.41640 19.30634 1500 ft 200 kts 127°
2026-05-06 07:48 47.40928 19.32480 2209 ft 218 kts 121°
2026-05-06 07:48 47.40210 19.34537 2800 ft 235 kts 121°
2026-05-06 07:49 47.39423 19.36706 3493 ft 246 kts 122°
2026-05-06 07:49 47.38601 19.38908 4366 ft 249 kts 123°
2026-05-06 07:49 47.37544 19.40933 4927 ft 258 kts 145°
2026-05-06 07:49 47.35931 19.42070 5682 ft 258 kts 171°
2026-05-06 07:50 47.34189 19.42225 6518 ft 257 kts 187°
2026-05-06 07:50 47.32444 19.41732 7311 ft 260 kts 201°
2026-05-06 07:50 47.30895 19.40362 8124 ft 263 kts 224°
2026-05-06 07:50 47.29862 19.38194 8955 ft 266 kts 243°
2026-05-06 07:51 47.29118 19.35697 9738 ft 270 kts 245°
2026-05-06 07:51 47.28390 19.33171 10450 ft 276 kts 245°
2026-05-06 07:51 47.27605 19.30486 10929 ft 292 kts 245°
2026-05-06 07:51 47.26786 19.27707 11425 ft 305 kts 245°
2026-05-06 07:52 47.25924 19.24793 11840 ft 321 kts 246°
2026-05-06 07:52 47.25016 19.21721 12278 ft 336 kts 246°
2026-05-06 07:52 47.24073 19.18533 12893 ft 345 kts 246°
2026-05-06 07:52 47.23113 19.15290 13589 ft 350 kts 246°
2026-05-06 07:53 47.22137 19.11993 14339 ft 354 kts 246°
2026-05-06 07:53 47.21155 19.08679 15084 ft 357 kts 246°
2026-05-06 07:53 47.20119 19.05372 15770 ft 362 kts 243°
2026-05-06 07:53 47.18825 19.02202 16438 ft 366 kts 234°
2026-05-06 07:54 47.17161 18.99347 17101 ft 371 kts 225°
2026-05-06 07:54 47.15264 18.96748 17689 ft 378 kts 221°
2026-05-06 07:54 47.13253 18.94253 18366 ft 381 kts 220°
2026-05-06 07:54 47.11209 18.91810 19021 ft 384 kts 220°
2026-05-06 07:55 47.08446 18.88520 19915 ft 387 kts 220°
2026-05-06 07:55 47.07051 18.86848 20320 ft 390 kts 220°
2026-05-06 07:55 47.04963 18.84326 20899 ft 394 kts 220°
2026-05-06 07:55 47.02849 18.81763 21547 ft 396 kts 221°
2026-05-06 07:56 47.00713 18.79165 22080 ft 400 kts 221°
2026-05-06 07:56 46.98589 18.76516 22634 ft 403 kts 223°
2026-05-06 07:56 46.96619 18.73686 23203 ft 405 kts 229°
2026-05-06 07:56 46.94832 18.70488 23755 ft 407 kts 235°
2026-05-06 07:57 46.93248 18.67069 24340 ft 408 kts 238°
2026-05-06 07:57 46.91758 18.63510 24879 ft 410 kts 240°
2026-05-06 07:57 46.90330 18.59895 25359 ft 414 kts 241°
2026-05-06 07:57 46.88938 18.56285 25917 ft 415 kts 241°
2026-05-06 07:58 46.87515 18.52586 26368 ft 418 kts 241°
2026-05-06 07:58 46.86085 18.48882 26844 ft 421 kts 241°
2026-05-06 07:58 46.84640 18.45170 27370 ft 422 kts 241°
2026-05-06 07:58 46.83196 18.41485 27827 ft 424 kts 241°
2026-05-06 07:59 46.81715 18.37724 28254 ft 427 kts 241°
2026-05-06 07:59 46.80229 18.33969 28673 ft 430 kts 240°
2026-05-06 07:59 46.78734 18.30207 29124 ft 432 kts 240°
2026-05-06 07:59 46.77239 18.26455 29549 ft 434 kts 240°
2026-05-06 08:00 46.75731 18.22677 30244 ft 429 kts 240°
2026-05-06 08:00 46.74225 18.18914 30851 ft 427 kts 240°
2026-05-06 08:00 46.72753 18.15241 31434 ft 424 kts 240°
2026-05-06 08:00 46.71261 18.11524 31983 ft 422 kts 240°
2026-05-06 08:01 46.69780 18.07838 32528 ft 419 kts 240°
2026-05-06 08:01 46.68304 18.04170 33012 ft 418 kts 240°
2026-05-06 08:01 46.66845 18.00547 33519 ft 415 kts 240°
2026-05-06 08:01 46.65400 17.96962 34020 ft 413 kts 240°
2026-05-06 08:02 46.63950 17.93369 34508 ft 410 kts 241°
2026-05-06 08:02 46.62497 17.89775 34912 ft 408 kts 241°
2026-05-06 08:02 46.61062 17.86231 35232 ft 408 kts 241°
2026-05-06 08:02 46.59626 17.82688 35545 ft 407 kts 241°
2026-05-06 08:03 46.58187 17.79144 35864 ft 407 kts 241°
2026-05-06 08:03 46.56750 17.75610 35922 ft 411 kts 240°
2026-05-06 08:03 46.53871 17.68540 35923 ft 406 kts 241°
2026-05-06 08:04 46.50997 17.61503 35918 ft 407 kts 240°
2026-05-06 08:04 46.48113 17.54455 35927 ft 408 kts 240°
2026-05-06 08:05 46.45217 17.47401 35918 ft 406 kts 241°
2026-05-06 08:05 46.42322 17.40363 35917 ft 407 kts 240°
2026-05-06 08:06 46.39437 17.33369 36007 ft 410 kts 240°
2026-05-06 08:06 46.36543 17.26373 35910 ft 403 kts 240°
2026-05-06 08:07 46.33647 17.19390 35903 ft 407 kts 240°
2026-05-06 08:07 46.30750 17.12421 35906 ft 405 kts 240°
2026-05-06 08:08 46.27848 17.05459 35898 ft 406 kts 240°
2026-05-06 08:08 46.24931 16.98474 35898 ft 407 kts 240°
2026-05-06 08:09 46.21829 16.91653 35901 ft 407 kts 236°
2026-05-06 08:09 46.18401 16.85160 35898 ft 406 kts 234°
2026-05-06 08:10 46.14950 16.78737 35904 ft 406 kts 234°
2026-05-06 08:10 46.11537 16.72313 35907 ft 405 kts 234°
2026-05-06 08:11 46.08112 16.65819 35904 ft 406 kts 235°
2026-05-06 08:11 46.04729 16.59395 35915 ft 406 kts 235°
2026-05-06 08:12 46.01318 16.52926 35928 ft 403 kts 235°
2026-05-06 08:12 45.97930 16.46510 35938 ft 404 kts 235°
2026-05-06 08:13 45.94546 16.40118 35937 ft 403 kts 234°
2026-05-06 08:13 45.91161 16.33733 35942 ft 403 kts 234°
2026-05-06 08:14 45.87807 16.27331 35942 ft 402 kts 235°
2026-05-06 08:14 45.84563 16.20790 35944 ft 401 kts 236°
2026-05-06 08:15 45.81367 16.14279 35943 ft 401 kts 236°
2026-05-06 08:15 45.78153 16.07775 35945 ft 401 kts 236°
2026-05-06 08:16 45.74939 16.01316 35945 ft 399 kts 236°
2026-05-06 08:16 45.71719 15.94872 35947 ft 400 kts 236°
2026-05-06 08:17 45.68496 15.88441 35949 ft 398 kts 236°
2026-05-06 08:17 45.66881 15.85227 35742 ft 396 kts 236°
2026-05-06 08:17 45.65278 15.82039 35941 ft 397 kts 236°
2026-05-06 08:18 45.62037 15.75602 35943 ft 401 kts 236°
2026-05-06 08:18 45.58781 15.69155 35938 ft 399 kts 236°
2026-05-06 08:19 45.55553 15.62777 35942 ft 399 kts 236°
2026-05-06 08:19 45.52318 15.56396 35944 ft 399 kts 236°
2026-05-06 08:20 45.49062 15.49991 35940 ft 397 kts 236°
2026-05-06 08:20 45.45811 15.43609 35945 ft 397 kts 235°
2026-05-06 08:21 45.42567 15.37254 35945 ft 398 kts 236°
2026-05-06 08:21 45.39315 15.30898 35951 ft 398 kts 235°
2026-05-06 08:22 45.36070 15.24572 35955 ft 397 kts 235°
2026-05-06 08:22 45.32825 15.18258 35955 ft 398 kts 235°
2026-05-06 08:23 45.29563 15.11925 35968 ft 397 kts 235°
2026-05-06 08:23 45.26309 15.05620 35967 ft 396 kts 234°
2026-05-06 08:24 45.23057 14.99332 35976 ft 396 kts 234°
2026-05-06 08:24 45.19811 14.93071 35974 ft 395 kts 235°
2026-05-06 08:25 45.16540 14.86781 35976 ft 396 kts 234°
2026-05-06 08:25 45.13276 14.80508 35971 ft 394 kts 234°
2026-05-06 08:26 45.10041 14.74307 35967 ft 393 kts 234°
2026-05-06 08:26 45.06773 14.68058 35967 ft 395 kts 234°
2026-05-06 08:27 45.03502 14.61820 35969 ft 394 kts 235°
2026-05-06 08:27 45.00271 14.55673 35971 ft 393 kts 234°
2026-05-06 08:28 44.96994 14.49457 35969 ft 394 kts 235°
2026-05-06 08:28 44.93728 14.43273 35968 ft 394 kts 234°
2026-05-06 08:29 44.90443 14.37064 35968 ft 395 kts 234°
2026-05-06 08:29 44.87176 14.30902 35970 ft 394 kts 234°
2026-05-06 08:30 44.83915 14.24764 35967 ft 392 kts 234°
2026-05-06 08:30 44.80645 14.18619 35970 ft 393 kts 234°
2026-05-06 08:31 44.77372 14.12482 35970 ft 392 kts 234°
2026-05-06 08:31 44.74110 14.06381 35968 ft 392 kts 234°
2026-05-06 08:32 44.70835 14.00270 35966 ft 393 kts 234°
2026-05-06 08:32 44.67542 13.94134 35962 ft 393 kts 234°
2026-05-06 08:33 44.64251 13.88017 35959 ft 392 kts 234°
2026-05-06 08:33 44.60962 13.81916 35952 ft 393 kts 234°
2026-05-06 08:34 44.56012 13.72763 35954 ft 393 kts 234°
2026-05-06 08:35 44.52725 13.66699 35945 ft 393 kts 233°
2026-05-06 08:35 44.49429 13.60630 35981 ft 395 kts 234°
2026-05-06 08:35 44.47765 13.57570 36278 ft 394 kts 234°
2026-05-06 08:36 44.46116 13.54544 36651 ft 392 kts 233°
2026-05-06 08:36 44.44453 13.51493 36939 ft 392 kts 234°
2026-05-06 08:36 44.42806 13.48454 36936 ft 395 kts 234°
2026-05-06 08:37 44.39890 13.42008 36933 ft 390 kts 241°
2026-05-06 08:37 44.37345 13.35350 36935 ft 391 kts 242°
2026-05-06 08:38 44.34841 13.28639 36934 ft 391 kts 242°
2026-05-06 08:38 44.32316 13.21941 36928 ft 391 kts 241°
2026-05-06 08:39 44.29762 13.15238 36921 ft 390 kts 241°
2026-05-06 08:39 44.27215 13.08594 36919 ft 390 kts 241°
2026-05-06 08:40 44.24663 13.01967 36925 ft 390 kts 241°
2026-05-06 08:40 44.22103 12.95333 36921 ft 390 kts 241°
2026-05-06 08:41 44.19539 12.88707 36922 ft 390 kts 241°
2026-05-06 08:41 44.16967 12.82077 36923 ft 390 kts 241°
2026-05-06 08:42 44.14413 12.75509 36925 ft 389 kts 241°
2026-05-06 08:42 44.11837 12.68900 36924 ft 388 kts 241°
2026-05-06 08:43 44.09263 12.62310 36923 ft 389 kts 241°
2026-05-06 08:43 44.06686 12.55727 36927 ft 390 kts 241°
2026-05-06 08:44 44.04088 12.49110 36924 ft 390 kts 241°
2026-05-06 08:44 44.01508 12.42549 36924 ft 390 kts 240°
2026-05-06 08:45 43.98914 12.35968 36928 ft 389 kts 241°
2026-05-06 08:45 43.96313 12.29386 36922 ft 391 kts 240°
2026-05-06 08:46 43.93724 12.22851 36927 ft 389 kts 240°
2026-05-06 08:46 43.91128 12.16312 36922 ft 388 kts 240°
2026-05-06 08:47 43.88522 12.09766 36916 ft 389 kts 240°
2026-05-06 08:47 43.85905 12.03206 36915 ft 389 kts 240°
2026-05-06 08:48 43.83303 11.96697 36918 ft 389 kts 240°
2026-05-06 08:48 43.80675 11.90139 36913 ft 389 kts 240°
2026-05-06 08:49 43.78061 11.83627 36917 ft 390 kts 240°
2026-05-06 08:49 43.75450 11.77070 36922 ft 391 kts 240°
2026-05-06 08:50 43.72876 11.70512 36918 ft 390 kts 240°
2026-05-06 08:50 43.70284 11.63919 36922 ft 391 kts 240°
2026-05-06 08:51 43.67696 11.57364 36924 ft 390 kts 240°
2026-05-06 08:51 43.65102 11.50815 36926 ft 391 kts 240°
2026-05-06 08:52 43.62498 11.44256 36924 ft 391 kts 240°
2026-05-06 08:52 43.59892 11.37709 36928 ft 391 kts 240°
2026-05-06 08:53 43.57267 11.31128 36925 ft 392 kts 239°
2026-05-06 08:53 43.54644 11.24565 36924 ft 390 kts 239°
2026-05-06 08:54 43.52025 11.18029 36928 ft 394 kts 239°
2026-05-06 08:54 43.49378 11.11440 36929 ft 392 kts 239°
2026-05-06 08:55 43.46744 11.04899 36936 ft 392 kts 239°
2026-05-06 08:55 43.44100 10.98349 36941 ft 393 kts 239°
2026-05-06 08:56 43.41454 10.91812 36936 ft 393 kts 239°
2026-05-06 08:56 43.38804 10.85279 36937 ft 393 kts 239°
2026-05-06 08:57 43.36152 10.78756 36930 ft 392 kts 239°
2026-05-06 08:57 43.33472 10.72180 36929 ft 392 kts 239°
2026-05-06 08:58 43.30814 10.65672 36932 ft 393 kts 239°
2026-05-06 08:58 43.28142 10.59147 36927 ft 394 kts 239°
2026-05-06 08:59 43.25464 10.52620 36921 ft 393 kts 239°
2026-05-06 08:59 43.22795 10.46131 36912 ft 393 kts 239°
2026-05-06 09:00 43.20107 10.39612 36912 ft 395 kts 239°
2026-05-06 09:00 43.17407 10.33070 36903 ft 393 kts 239°
2026-05-06 09:01 43.14861 10.26504 36901 ft 392 kts 240°
2026-05-06 09:01 43.12389 10.19853 36899 ft 393 kts 240°
2026-05-06 09:02 43.09925 10.13254 36889 ft 392 kts 240°
2026-05-06 09:02 43.07436 10.06648 36885 ft 392 kts 240°
2026-05-06 09:03 43.04923 10.00016 36893 ft 392 kts 240°
2026-05-06 09:03 43.02422 9.93438 36903 ft 392 kts 240°
2026-05-06 09:04 42.99903 9.86834 36901 ft 392 kts 240°
2026-05-06 09:04 42.97386 9.80249 36902 ft 392 kts 240°
2026-05-06 09:05 42.94860 9.73691 36901 ft 392 kts 239°
2026-05-06 09:05 42.92137 9.67274 36905 ft 393 kts 237°
2026-05-06 09:06 42.89312 9.60901 36901 ft 391 kts 237°
2026-05-06 09:06 42.86514 9.54567 36900 ft 393 kts 237°
2026-05-06 09:07 42.83707 9.48179 36895 ft 393 kts 238°
2026-05-06 09:07 42.80885 9.41751 36889 ft 396 kts 238°
2026-05-06 09:08 42.78076 9.35348 36892 ft 395 kts 237°
2026-05-06 09:08 42.75271 9.28970 36891 ft 395 kts 237°
2026-05-06 09:09 42.72463 9.22599 36900 ft 394 kts 237°
2026-05-06 09:09 42.69641 9.16208 36907 ft 396 kts 237°
2026-05-06 09:10 42.66816 9.09824 36914 ft 395 kts 237°
2026-05-06 09:10 42.63993 9.03455 36921 ft 395 kts 237°
2026-05-06 09:11 42.61171 8.97103 36932 ft 395 kts 237°
2026-05-06 09:11 42.58340 8.90754 36931 ft 394 kts 237°
2026-05-06 09:12 42.55478 8.84347 36939 ft 396 kts 237°
2026-05-06 09:12 42.52634 8.77993 36928 ft 395 kts 237°
2026-05-06 09:13 42.49766 8.71600 36932 ft 395 kts 237°
2026-05-06 09:13 42.46930 8.65290 36930 ft 395 kts 237°
2026-05-06 09:14 42.44074 8.58952 36927 ft 395 kts 237°
2026-05-06 09:14 42.41217 8.52620 36920 ft 392 kts 237°
2026-05-06 09:15 42.38369 8.46322 36935 ft 394 kts 237°
2026-05-06 09:15 42.35506 8.40000 36927 ft 394 kts 237°
2026-05-06 09:16 42.32652 8.33708 36930 ft 393 kts 237°
2026-05-06 09:16 42.29789 8.27418 36925 ft 392 kts 237°
2026-05-06 09:17 42.26939 8.21169 36924 ft 394 kts 237°
2026-05-06 09:17 42.24078 8.14910 36922 ft 393 kts 237°
2026-05-06 09:18 42.21218 8.08664 36913 ft 393 kts 237°
2026-05-06 09:18 42.18335 8.02390 36914 ft 394 kts 237°
2026-05-06 09:19 42.15449 7.96118 36920 ft 394 kts 237°
2026-05-06 09:19 42.12574 7.89881 36918 ft 392 kts 237°
2026-05-06 09:20 42.09715 7.83692 36922 ft 392 kts 237°
2026-05-06 09:20 42.06824 7.77443 36918 ft 391 kts 237°
2026-05-06 09:21 42.03956 7.71257 36915 ft 392 kts 237°
2026-05-06 09:21 42.01073 7.65049 36920 ft 391 kts 237°
2026-05-06 09:22 41.98208 7.58895 36924 ft 392 kts 237°
2026-05-06 09:22 41.95318 7.52701 36924 ft 391 kts 237°
2026-05-06 09:23 41.92443 7.46551 36929 ft 391 kts 237°
2026-05-06 09:23 41.89549 7.40375 36926 ft 392 kts 237°
2026-05-06 09:24 41.86655 7.34212 36924 ft 390 kts 236°
2026-05-06 09:24 41.83767 7.28073 36926 ft 390 kts 236°
2026-05-06 09:25 41.80881 7.21953 36929 ft 390 kts 236°
2026-05-06 09:25 41.77968 7.15791 36930 ft 391 kts 236°
2026-05-06 09:26 41.75061 7.09656 36927 ft 390 kts 236°
2026-05-06 09:26 41.72147 7.03514 36931 ft 392 kts 236°
2026-05-06 09:27 41.69246 6.97412 36934 ft 391 kts 236°
2026-05-06 09:27 41.66334 6.91299 36933 ft 391 kts 237°
2026-05-06 09:28 41.63417 6.85186 36935 ft 390 kts 237°
2026-05-06 09:28 41.60491 6.79067 36939 ft 390 kts 236°
2026-05-06 09:29 41.57579 6.72991 36940 ft 391 kts 237°
2026-05-06 09:29 41.54653 6.66894 36941 ft 389 kts 236°
2026-05-06 09:30 41.51740 6.60835 36943 ft 390 kts 236°
2026-05-06 09:30 41.48810 6.54759 36940 ft 390 kts 237°
2026-05-06 09:31 41.45895 6.48725 36945 ft 389 kts 236°
2026-05-06 09:31 41.42952 6.42643 36950 ft 390 kts 237°
2026-05-06 09:32 41.40023 6.36604 36950 ft 389 kts 237°
2026-05-06 09:32 41.37091 6.30573 36953 ft 391 kts 236°
2026-05-06 09:33 41.34144 6.24519 36954 ft 389 kts 236°
2026-05-06 09:33 41.31218 6.18518 36958 ft 390 kts 236°
2026-05-06 09:34 41.28256 6.12461 36960 ft 390 kts 236°
2026-05-06 09:34 41.25305 6.06435 36960 ft 389 kts 236°
2026-05-06 09:35 41.22327 6.00368 36964 ft 391 kts 236°
2026-05-06 09:35 41.19368 5.94350 36963 ft 390 kts 236°
2026-05-06 09:36 41.16421 5.88368 36962 ft 389 kts 236°
2026-05-06 09:36 41.13443 5.82334 36966 ft 389 kts 236°
2026-05-06 09:37 41.10497 5.76381 36965 ft 389 kts 236°
2026-05-06 09:37 41.07542 5.70418 36966 ft 388 kts 236°
2026-05-06 09:38 41.04557 5.64405 36964 ft 390 kts 237°
2026-05-06 09:38 41.01607 5.58475 36969 ft 389 kts 236°
2026-05-06 09:39 40.98622 5.52484 36963 ft 388 kts 236°
2026-05-06 09:39 40.95644 5.46521 36967 ft 390 kts 237°
2026-05-06 09:40 40.92667 5.40570 36965 ft 389 kts 236°
2026-05-06 09:40 40.88199 5.31664 36964 ft 390 kts 236°
2026-05-06 09:41 40.85215 5.25729 36966 ft 389 kts 236°
2026-05-06 09:41 40.82210 5.19764 36967 ft 390 kts 236°
2026-05-06 09:42 40.79233 5.13867 36966 ft 388 kts 236°
2026-05-06 09:42 40.76226 5.07920 36965 ft 388 kts 236°
2026-05-06 09:43 40.73249 5.02045 36966 ft 388 kts 236°
2026-05-06 09:43 40.70256 4.96150 36965 ft 388 kts 236°
2026-05-06 09:44 40.67256 4.90252 36961 ft 389 kts 236°
2026-05-06 09:44 40.64259 4.84370 36960 ft 389 kts 236°
2026-05-06 09:45 40.61239 4.78456 36957 ft 389 kts 237°
2026-05-06 09:45 40.58239 4.72591 36956 ft 389 kts 236°
2026-05-06 09:46 40.55244 4.66671 36956 ft 389 kts 238°
2026-05-06 09:46 40.52622 4.60451 36954 ft 389 kts 242°
2026-05-06 09:47 40.50194 4.54141 36951 ft 388 kts 243°
2026-05-06 09:47 40.47755 4.47820 36952 ft 389 kts 243°
2026-05-06 09:48 40.45301 4.41541 36944 ft 389 kts 242°
2026-05-06 09:48 40.42812 4.35226 36949 ft 389 kts 242°
2026-05-06 09:49 40.40328 4.28956 36948 ft 389 kts 242°
2026-05-06 09:49 40.37842 4.22700 36943 ft 388 kts 242°
2026-05-06 09:50 40.35342 4.16420 36944 ft 388 kts 242°
2026-05-06 09:50 40.32858 4.10196 36948 ft 389 kts 242°
2026-05-06 09:51 40.30355 4.03938 36940 ft 387 kts 242°
2026-05-06 09:51 40.27839 3.97661 36949 ft 389 kts 242°
2026-05-06 09:52 40.25348 3.91460 36949 ft 388 kts 242°
2026-05-06 09:52 40.22837 3.85223 36951 ft 389 kts 242°
2026-05-06 09:53 40.20313 3.78962 36946 ft 388 kts 242°
2026-05-06 09:53 40.17785 3.72705 36942 ft 389 kts 242°
2026-05-06 09:54 40.15263 3.66480 36944 ft 389 kts 242°
2026-05-06 09:54 40.12724 3.60242 36947 ft 389 kts 242°
2026-05-06 09:55 40.10209 3.54068 36948 ft 388 kts 242°
2026-05-06 09:55 40.07658 3.47818 36947 ft 388 kts 242°
2026-05-06 09:56 40.05130 3.41630 36948 ft 387 kts 242°
2026-05-06 09:56 40.02611 3.35478 36944 ft 387 kts 242°
2026-05-06 09:57 40.00072 3.29290 36943 ft 389 kts 242°
2026-05-06 09:57 39.97535 3.23118 36949 ft 388 kts 242°
2026-05-06 09:58 39.94982 3.16924 36948 ft 387 kts 242°
2026-05-06 09:58 39.92419 3.10780 36943 ft 388 kts 240°
2026-05-06 09:59 39.89502 3.04920 36946 ft 388 kts 236°
2026-05-06 09:59 39.86419 2.99170 36948 ft 388 kts 236°
2026-05-06 10:00 39.83344 2.93407 36950 ft 387 kts 236°
2026-05-06 10:00 39.80293 2.87629 36952 ft 388 kts 236°
2026-05-06 10:01 39.77251 2.81849 36972 ft 388 kts 236°
2026-05-06 10:01 39.74220 2.76091 36984 ft 387 kts 237°
2026-05-06 10:02 39.71198 2.70350 36981 ft 389 kts 237°
2026-05-06 10:02 39.68145 2.64560 36965 ft 388 kts 237°
2026-05-06 10:03 39.65101 2.58800 36955 ft 389 kts 237°
2026-05-06 10:03 39.62044 2.53020 36948 ft 389 kts 237°
2026-05-06 10:04 39.58985 2.47245 36947 ft 389 kts 237°
2026-05-06 10:04 39.55912 2.41452 36949 ft 389 kts 237°
2026-05-06 10:05 39.52967 2.35597 36946 ft 389 kts 240°
2026-05-06 10:05 39.50293 2.29564 36952 ft 389 kts 241°
2026-05-06 10:06 39.47627 2.23478 36941 ft 389 kts 241°
2026-05-06 10:06 39.44945 2.17440 36937 ft 389 kts 241°
2026-05-06 10:07 39.42228 2.11394 36934 ft 388 kts 240°
2026-05-06 10:07 39.39511 2.05380 36940 ft 389 kts 240°
2026-05-06 10:08 39.36784 1.99365 36937 ft 389 kts 240°
2026-05-06 10:08 39.34063 1.93376 36928 ft 389 kts 240°
2026-05-06 10:09 39.31337 1.87392 36932 ft 389 kts 240°
2026-05-06 10:09 39.28588 1.81362 36928 ft 389 kts 240°
2026-05-06 10:10 39.25857 1.75386 36938 ft 389 kts 241°
2026-05-06 10:10 39.23116 1.69401 36925 ft 388 kts 241°
2026-05-06 10:11 39.20368 1.63410 36925 ft 389 kts 240°
2026-05-06 10:11 39.17618 1.57427 36936 ft 389 kts 240°
2026-05-06 10:12 39.14867 1.51454 36934 ft 390 kts 241°
2026-05-06 10:12 39.12139 1.45450 36935 ft 389 kts 243°
2026-05-06 10:13 39.09908 1.39151 36943 ft 388 kts 249°
2026-05-06 10:13 39.07968 1.32709 36859 ft 386 kts 249°
2026-05-06 10:14 39.07014 1.29490 36534 ft 380 kts 249°
2026-05-06 10:14 39.06083 1.26363 36116 ft 376 kts 249°
2026-05-06 10:14 39.05152 1.23260 35622 ft 377 kts 249°
2026-05-06 10:14 39.04195 1.20090 35046 ft 378 kts 249°
2026-05-06 10:15 39.03254 1.16992 34440 ft 379 kts 249°
2026-05-06 10:15 39.02287 1.13820 33736 ft 380 kts 249°
2026-05-06 10:15 39.01331 1.10692 33078 ft 379 kts 249°
2026-05-06 10:15 39.00359 1.07521 32472 ft 383 kts 249°
2026-05-06 10:16 38.99386 1.04356 32020 ft 385 kts 249°
2026-05-06 10:16 38.98409 1.01185 31522 ft 384 kts 249°
2026-05-06 10:16 38.97429 0.98011 31017 ft 379 kts 249°
2026-05-06 10:16 38.96463 0.94886 30520 ft 374 kts 249°
2026-05-06 10:17 38.95524 0.91847 30036 ft 369 kts 249°
2026-05-06 10:17 38.94575 0.88784 29541 ft 365 kts 249°
2026-05-06 10:17 38.93655 0.85806 29066 ft 362 kts 249°
2026-05-06 10:17 38.92728 0.82809 28587 ft 367 kts 249°
2026-05-06 10:18 38.91779 0.79748 28083 ft 368 kts 249°
2026-05-06 10:18 38.90845 0.76739 27588 ft 363 kts 249°
2026-05-06 10:18 38.89917 0.73754 27103 ft 359 kts 249°
2026-05-06 10:18 38.88993 0.70781 26622 ft 354 kts 249°
2026-05-06 10:19 38.88094 0.67890 26146 ft 350 kts 249°
2026-05-06 10:19 38.87190 0.64993 25671 ft 348 kts 249°
2026-05-06 10:19 38.86301 0.62143 25203 ft 353 kts 249°
2026-05-06 10:19 38.85384 0.59209 24709 ft 354 kts 249°
2026-05-06 10:20 38.84468 0.56286 24220 ft 350 kts 249°
2026-05-06 10:20 38.83574 0.53431 23744 ft 346 kts 249°
2026-05-06 10:20 38.82682 0.50589 23273 ft 342 kts 249°
2026-05-06 10:20 38.81834 0.47776 22949 ft 337 kts 251°
2026-05-06 10:21 38.81140 0.44918 22943 ft 343 kts 254°
2026-05-06 10:21 38.80513 0.41926 22939 ft 346 kts 255°
2026-05-06 10:21 38.79925 0.38978 22939 ft 346 kts 256°
2026-05-06 10:21 38.79331 0.36000 22939 ft 345 kts 256°
2026-05-06 10:22 38.78728 0.33014 22939 ft 347 kts 255°
2026-05-06 10:22 38.78120 0.30052 22941 ft 348 kts 255°
2026-05-06 10:22 38.77495 0.27047 22936 ft 347 kts 254°
2026-05-06 10:22 38.76876 0.24090 22942 ft 347 kts 254°
2026-05-06 10:23 38.76244 0.21091 22939 ft 346 kts 254°
2026-05-06 10:23 38.75621 0.18144 22644 ft 344 kts 254°
2026-05-06 10:23 38.75001 0.15217 22199 ft 340 kts 254°
2026-05-06 10:23 38.74389 0.12330 21738 ft 336 kts 254°
2026-05-06 10:24 38.73777 0.09449 21267 ft 333 kts 254°
2026-05-06 10:24 38.73167 0.06590 20808 ft 335 kts 254°
2026-05-06 10:24 38.72554 0.03714 20341 ft 338 kts 254°
2026-05-06 10:24 38.71939 0.00838 19856 ft 335 kts 254°
2026-05-06 10:25 38.71327 -0.02024 19389 ft 332 kts 254°
2026-05-06 10:25 38.70728 -0.04824 18920 ft 328 kts 254°
2026-05-06 10:25 38.70132 -0.07604 18464 ft 325 kts 254°
2026-05-06 10:25 38.69532 -0.10400 18009 ft 330 kts 254°
2026-05-06 10:26 38.68922 -0.13237 17542 ft 331 kts 255°
2026-05-06 10:26 38.68315 -0.16058 17061 ft 328 kts 254°
2026-05-06 10:26 38.67712 -0.18856 16596 ft 324 kts 255°
2026-05-06 10:26 38.67123 -0.21588 16147 ft 320 kts 255°
2026-05-06 10:27 38.66537 -0.24299 15688 ft 316 kts 255°
2026-05-06 10:27 38.65951 -0.27011 15233 ft 312 kts 255°
2026-05-06 10:27 38.65374 -0.29677 14788 ft 316 kts 255°
2026-05-06 10:27 38.64791 -0.32368 14322 ft 317 kts 255°
2026-05-06 10:28 38.64206 -0.35057 13872 ft 313 kts 255°
2026-05-06 10:28 38.63625 -0.37728 13424 ft 309 kts 255°
2026-05-06 10:28 38.63052 -0.40364 12976 ft 306 kts 255°
2026-05-06 10:28 38.62485 -0.42965 12519 ft 304 kts 255°
2026-05-06 10:29 38.61921 -0.45556 12076 ft 306 kts 255°
2026-05-06 10:29 38.61352 -0.48164 11631 ft 310 kts 255°
2026-05-06 10:29 38.60773 -0.50811 11168 ft 307 kts 255°
2026-05-06 10:29 38.60203 -0.53418 10733 ft 304 kts 255°
2026-05-06 10:30 38.59636 -0.56007 10381 ft 299 kts 255°
2026-05-06 10:30 38.59085 -0.58512 10214 ft 288 kts 255°
2026-05-06 10:30 38.58558 -0.60908 10113 ft 276 kts 255°
2026-05-06 10:30 38.58049 -0.63223 9908 ft 268 kts 255°
2026-05-06 10:31 38.57549 -0.65500 9550 ft 267 kts 254°
2026-05-06 10:31 38.57047 -0.67784 9214 ft 265 kts 254°
2026-05-06 10:31 38.56548 -0.70045 8890 ft 264 kts 254°
2026-05-06 10:31 38.56055 -0.72277 8563 ft 262 kts 254°
2026-05-06 10:32 38.55561 -0.74515 8236 ft 260 kts 255°
2026-05-06 10:32 38.55071 -0.76736 7935 ft 262 kts 255°
2026-05-06 10:32 38.54543 -0.78957 7770 ft 259 kts 250°
2026-05-06 10:32 38.53711 -0.80915 7670 ft 249 kts 228°
2026-05-06 10:33 38.52305 -0.82125 7422 ft 246 kts 197°
2026-05-06 10:33 38.50639 -0.82550 7147 ft 244 kts 187°
2026-05-06 10:33 38.48952 -0.82848 6853 ft 243 kts 188°
2026-05-06 10:33 38.47277 -0.83184 6581 ft 241 kts 189°
2026-05-06 10:34 38.45616 -0.83550 6317 ft 243 kts 189°
2026-05-06 10:34 38.43938 -0.83928 6026 ft 246 kts 189°
2026-05-06 10:34 38.42267 -0.84304 5747 ft 245 kts 189°
2026-05-06 10:34 38.40593 -0.84681 5552 ft 237 kts 188°
2026-05-06 10:35 38.38996 -0.85040 5364 ft 231 kts 188°
2026-05-06 10:35 38.37480 -0.85382 5191 ft 214 kts 188°
2026-05-06 10:35 38.36059 -0.85703 4985 ft 198 kts 188°
2026-05-06 10:35 38.34723 -0.85967 4787 ft 194 kts 181°
2026-05-06 10:36 38.33408 -0.85724 4612 ft 191 kts 150°
2026-05-06 10:36 38.32442 -0.84634 4397 ft 187 kts 121°
2026-05-06 10:36 38.31923 -0.83161 4072 ft 182 kts 98°
2026-05-06 10:36 38.31843 -0.81561 3826 ft 179 kts 93°
2026-05-06 10:37 38.31671 -0.80035 3592 ft 172 kts 100°
2026-05-06 10:37 38.31417 -0.78590 3366 ft 167 kts 101°
2026-05-06 10:37 38.31187 -0.77148 3272 ft 163 kts 98°
2026-05-06 10:37 38.30994 -0.75741 3041 ft 158 kts 97°
2026-05-06 10:38 38.30807 -0.74377 2761 ft 154 kts 98°
2026-05-06 10:38 38.30620 -0.73044 2570 ft 150 kts 98°
2026-05-06 10:38 38.30446 -0.71793 2329 ft 140 kts 97°
2026-05-06 10:38 38.30278 -0.70573 2186 ft 140 kts 97°
2026-05-06 10:39 38.30111 -0.69363 1988 ft 139 kts 97°
2026-05-06 10:39 38.29942 -0.68149 1813 ft 139 kts 97°
2026-05-06 10:39 38.29773 -0.66938 1620 ft 138 kts 97°
2026-05-06 10:39 38.29605 -0.65731 1435 ft 138 kts 98°
2026-05-06 10:40 38.29437 -0.64532 1258 ft 137 kts 98°
2026-05-06 10:40 38.29272 -0.63346 1076 ft 138 kts 98°
2026-05-06 10:40 38.29107 -0.62135 894 ft 137 kts 98°
2026-05-06 10:40 38.28938 -0.60941 712 ft 137 kts 99°
2026-05-06 10:41 38.28770 -0.59747 529 ft 137 kts 98°
2026-05-06 10:41 38.28606 -0.58551 352 ft 137 kts 101°
2026-05-06 10:41 38.28434 -0.57352 177 ft 137 kts 95°
2026-05-06 10:41 38.28301 -0.56297 105 ft 90 kts 102°
2026-05-06 10:42 38.28253 -0.56010 96 ft 0 kts 101°
2026-05-06 10:42 38.28234 -0.55893 93 ft 30 kts 101°
2026-05-06 10:42 38.28236 -0.55585 95 ft 31 kts 72°
2026-05-06 10:42 38.28297 -0.55366 92 ft 27 kts 69°
2026-05-06 10:43 38.28388 -0.55173 79 ft 14 kts 32°
2026-05-06 10:43 38.28418 -0.55172 79 ft 10 kts 335°
2026-05-06 10:43 38.28487 -0.55182 80 ft 9 kts
2026-05-06 10:44 38.28516 -0.55176 80 ft 0 kts